Triuchirapalli, India

3:02 PM IST on September 17, 2019 (GMT +0530)
Tiruchirappalli

Weather History for VOTR - July, 2019

Change the Weather History Date:

Monday, July 15, 2019

  Actual Average Record
Temperature  
Mean Temperature 91 °F -  
Max Temperature 103 °F 92 °F 103 °F (2019)
Min Temperature 79 °F 80 °F 73 °F (2016)
Cooling Degree Days 26    
Growing Degree Days 41 (Base 50)    
Moisture  
Dew Point 72 °F    
Average Humidity 61    
Maximum Humidity 84    
Minimum Humidity 21    
Precipitation  
Precipitation 0.08 in - - ()
Sea Level Pressure  
Sea Level Pressure 29.71 in    
Wind  
Wind Speed 7 mph ()    
Max Wind Speed 16 mph    
Max Gust Speed 24 mph    
Visibility 4.3 miles    
Events Rain    
Averages and records for this station are not official NWS values.
T = Trace of Precipitation, MM = Missing Value Source: Averaged Metar Reports

Daily Weather History Graph

Daily Weather History Graph

Search for Another Location

Airport or City:

Astronomy

Jul. 15, 2019 Rise Set
Actual Time 6:00 AM IST 6:41 PM IST
Civil Twilight 5:37 AM IST 7:04 PM IST
Nautical Twilight 5:10 AM IST 7:31 PM IST
Astronomical Twilight 4:43 AM IST 7:58 PM IST
Moon 5:30 PM IST (7/15) 4:26 AM IST (7/15)
Length of Visible Light 13h 27m
Length of Day
12h 41m
Waxing Gibbous, 97% of the Moon is Illuminated
Jul 15
Waxing Gibbous
Jul 17
Full
Jul 25
Last Quarter
Aug 1
New
Aug 7
First Quarter

Hourly Weather History & Observations

Time (IST) Temp. Heat Index Dew Point Humidity Pressure Visibility Wind Dir Wind Speed Gust Speed Precip Events Conditions
12:00 AM 82.4 °F 89.5 °F 75.2 °F 79% 29.80 in 3.7 mi WSW 3.5 mph - N/A   Scattered Clouds
12:30 AM 82.4 °F 89.5 °F 75.2 °F 79% 29.77 in 3.7 mi WSW 2.3 mph - N/A   Scattered Clouds
1:00 AM 82.4 °F 89.5 °F 75.2 °F 79% 29.77 in 3.7 mi WSW 3.5 mph - N/A   Scattered Clouds
1:30 AM 82.4 °F 89.5 °F 75.2 °F 79% 29.77 in 3.7 mi South 3.5 mph - N/A   Scattered Clouds
2:00 AM 82.4 °F 89.5 °F 75.2 °F 79% 29.74 in 3.7 mi West 5.8 mph - N/A   Partly Cloudy
2:30 AM 82 °F - 73 °F 69% 29.74 in 2 mi WNW 6.9 mph - -   Haze
2:30 AM 82.4 °F 88.2 °F 73.4 °F 74% 29.74 in 3.7 mi WNW 6.9 mph - N/A   Partly Cloudy
3:00 AM 82.4 °F 88.2 °F 73.4 °F 74% 29.74 in 3.7 mi West 4.6 mph - N/A   Partly Cloudy
3:30 AM 82.4 °F 88.2 °F 73.4 °F 74% 29.71 in 3.7 mi West 4.6 mph - N/A   Partly Cloudy
4:00 AM 82.4 °F 88.2 °F 73.4 °F 74% 29.71 in 3.7 mi West 4.6 mph - N/A   Partly Cloudy
4:30 AM 82.4 °F 88.2 °F 73.4 °F 74% 29.71 in 3.7 mi West 5.8 mph - N/A   Partly Cloudy
5:00 AM 82.4 °F 88.2 °F 73.4 °F 74% 29.71 in 3.7 mi West 5.8 mph - N/A   Partly Cloudy
5:30 AM 82 °F - 74 °F 69% 29.72 in 2 mi WNW 9.2 mph - -   Haze
5:30 AM 82.4 °F 88.2 °F 73.4 °F 74% 29.71 in 3.7 mi WNW 9.2 mph - N/A   Partly Cloudy
6:00 AM 82.4 °F 88.2 °F 73.4 °F 74% 29.71 in 3.7 mi West 6.9 mph - N/A   Partly Cloudy
6:30 AM 82.4 °F 88.2 °F 73.4 °F 74% 29.74 in 3.7 mi WNW 6.9 mph - N/A   Partly Cloudy
7:00 AM 84.2 °F 89.6 °F 71.6 °F 66% 29.74 in 3.7 mi West 10.4 mph - N/A   Partly Cloudy
7:30 AM 84.2 °F 88.4 °F 69.8 °F 62% 29.74 in 5.0 mi West 11.5 mph - N/A   Partly Cloudy
8:00 AM 86.0 °F 90.4 °F 69.8 °F 58% 29.77 in 5.0 mi West 10.4 mph 21.9 mph N/A   Partly Cloudy
8:30 AM 86 °F - 72 °F 54% 29.76 in 2 mi WSW 16.1 mph - -   Haze
8:30 AM 86.0 °F 91.8 °F 71.6 °F 62% 29.77 in 5.0 mi WSW 11.5 mph 23.0 mph N/A   Partly Cloudy
9:00 AM 86.0 °F 91.8 °F 71.6 °F 62% 29.77 in 5.0 mi West 10.4 mph 21.9 mph N/A   Partly Cloudy
9:30 AM 87.8 °F 93.8 °F 71.6 °F 58% 29.77 in 5.0 mi West 13.8 mph - N/A   Partly Cloudy
10:00 AM 89.6 °F 94.7 °F 69.8 °F 52% 29.77 in 5.0 mi West 11.5 mph - N/A   Partly Cloudy
10:30 AM 91.4 °F 96.8 °F 69.8 °F 49% 29.74 in 5.0 mi WSW 9.2 mph 20.7 mph N/A   Partly Cloudy
11:00 AM 93.2 °F 98.8 °F 69.8 °F 46% 29.74 in 5.0 mi West 11.5 mph - N/A   Partly Cloudy
11:30 AM 96 °F - 68 °F 31% 29.73 in 6 mi West 11.5 mph - -   Scattered Clouds
11:30 AM 95.0 °F 99.5 °F 68.0 °F 41% 29.74 in 6.2 mi West 11.5 mph - N/A   Partly Cloudy
12:00 PM 96.8 °F 101.8 °F 68.0 °F 39% 29.71 in 6.2 mi West 12.7 mph 24.2 mph N/A   Partly Cloudy
12:30 PM 96.8 °F 101.8 °F 68.0 °F 39% 29.71 in 6.2 mi West 9.2 mph 20.7 mph N/A   Scattered Clouds
1:00 PM 98.6 °F 102.8 °F 66.2 °F 35% 29.68 in 6.2 mi West 11.5 mph - N/A   Scattered Clouds
1:30 PM 100.4 °F 104.9 °F 66.2 °F 33% 29.68 in 6.2 mi West 11.5 mph 23.0 mph N/A   Scattered Clouds
2:00 PM 100.4 °F 104.9 °F 66.2 °F 33% 29.65 in 6.2 mi West 9.2 mph 20.7 mph N/A   Scattered Clouds
2:30 PM 102 °F - 65 °F 21% 29.64 in 6 mi West 11.5 mph - -   Partly Cloudy
2:30 PM 102.2 °F 106.9 °F 66.2 °F 31% 29.65 in 6.2 mi West 11.5 mph - N/A   Scattered Clouds
3:00 PM 104.0 °F 107.4 °F 64.4 °F 27% 29.65 in 6.2 mi West 8.1 mph - N/A   Partly Cloudy
3:30 PM 104.0 °F 107.4 °F 64.4 °F 27% 29.62 in 6.2 mi WNW 11.5 mph - N/A   Partly Cloudy
4:00 PM 102.2 °F 106.9 °F 66.2 °F 31% 29.62 in 5.0 mi West 9.2 mph - N/A Rain Light Rain
4:30 PM 95.0 °F 101.3 °F 69.8 °F 44% 29.62 in 5.0 mi SW 11.5 mph - N/A Rain Light Rain
5:00 PM 93.2 °F 98.8 °F 69.8 °F 46% 29.62 in 5.0 mi SE 5.8 mph - N/A   Partly Cloudy
5:30 PM 90 °F - 76 °F 57% 29.64 in 2 mi SW 13.8 mph - - Rain Light Drizzle
5:30 PM 89.6 °F 102.2 °F 77.0 °F 66% 29.65 in 5.0 mi SW 11.5 mph 23.0 mph N/A   Mostly Cloudy
6:00 PM 87.8 °F 99.7 °F 77.0 °F 70% 29.65 in 4.3 mi SW 13.8 mph - N/A   Mostly Cloudy
6:30 PM 86.0 °F 99.3 °F 78.8 °F 79% 29.65 in 3.7 mi SSW 11.5 mph - N/A   Mostly Cloudy
7:00 PM 84.2 °F 96.1 °F 78.8 °F 84% 29.65 in 3.7 mi SSW 11.5 mph - N/A   Mostly Cloudy
7:30 PM 84.2 °F 96.1 °F 78.8 °F 84% 29.68 in 3.7 mi SSW 11.5 mph - N/A   Mostly Cloudy
8:00 PM 84.2 °F 96.1 °F 78.8 °F 84% 29.68 in 3.7 mi SSW 9.2 mph - N/A   Mostly Cloudy
8:30 PM 84 °F - 74 °F 66% 29.70 in 2 mi SW 5.8 mph - -   Partly Cloudy
8:30 PM 84.2 °F 92.3 °F 75.2 °F 74% 29.71 in 3.7 mi SW 5.8 mph - N/A   Mostly Cloudy
9:30 PM 84.2 °F 92.3 °F 75.2 °F 74% 29.74 in 3.7 mi SW 4.6 mph - N/A   Mostly Cloudy
10:00 PM 82.4 °F 89.5 °F 75.2 °F 79% 29.74 in 3.7 mi SW 4.6 mph - N/A   Scattered Clouds
10:30 PM 82.4 °F 89.5 °F 75.2 °F 79% 29.74 in 3.7 mi SW 5.8 mph - N/A   Partly Cloudy
11:30 PM 83 °F - 74 °F 67% 29.75 in 2 mi WSW 4.6 mph - -   Haze
11:30 PM 82.4 °F 88.2 °F 73.4 °F 74% 29.74 in 3.7 mi WSW 4.6 mph - N/A   Scattered Clouds